Regional Weather Roundup
Issued by NWS

Home | Current Version | Previous Version | Text Only | Print | Product List | Glossary On
Versions: 1 2 3 4 5 6 7 8 9 10 11 12 13 14 15 16 17 18 19 20 21 22 23 24 25 26 27 28 29 30 31 32 33 34 35 36 37 38 39 40 41 42 43 44 45 46 47 48 49 50
000
ASUS44 KLIX 030311
RWRLA
LOUISIANA WEATHER ROUNDUP
NATIONAL WEATHER SERVICE NEW ORLEANS LA
1000 PM CDT TUE JUN 02 2015

NOTE: "FAIR" INDICATES FEW OR NO CLOUDS BELOW 12,000 FEET WITH NO
      SIGNIFICANT WEATHER AND/OR OBSTRUCTIONS TO VISIBILITY.
      SKY/WX - SKY CONDITION AND SIGNIFICANT WEATHER.
      TMP - AIR TEMPERATURE.    DP   - DEWPOINT TEMPERATURE.
      RH  - RELATIVE HUMIDITY.  PRES - PRESSURE.
      HX  - HEAT INDEX.         WCI  - WIND CHILL INDEX.

*  THESE STATIONS ARE NOT NWS OR FAA STATIONS AND ARE NOT UNDER
   NWS QUALITY CONTROL.

LAZ040-048-061>063-065-066-069-030400-
SOUTHEAST LOUISIANA

CITY           SKY/WX    TMP DP  RH WIND       PRES   REMARKS
N.O. AUDUBON   NOT AVBL
N.O. INTL ARPT PTCLDY    81  61  50 CALM      29.93R
N.O. LAKEFRONT PTCLDY    84  71  65 NE10      29.94R
SLIDELL        CLOUDY    76  70  82 E7        29.94R
BATON ROUGE    CLEAR     77  66  68 CALM      29.95R
BOOTHVILLE     CLEAR     79  71  76 CALM      29.94R
BELLE CHASSE   PTCLDY    75  69  81 SW5       29.93R
BOGALUSA*        N/A     74  68  81 N3        29.96R
GALLIANO*      MOCLDY    78  69  73 SE3       29.94R
NEW ROADS*     FAIR     N/A N/A N/A NE3       29.95R
GONZALES*      FAIR      73  70  91 CALM      29.93R
HAMMOND*       CLEAR     73  66  78 CALM      29.96R
HOUMA*         PTCLDY    76  69  80 CALM      29.93R
PORT FOURCHON* NOT AVBL

$$

LAZ041-044-053-054-030400-
SOUTHWEST LOUISIANA

CITY           SKY/WX    TMP DP  RH WIND       PRES   REMARKS
LAKE CHARLES   CLEAR     73  67  81 CALM      29.93R
LAFAYETTE      CLEAR     75  68  78 NE3       29.94R
PATTERSON      CLEAR     73  70  88 CALM      29.95R
SALT POINT       N/A     76  70  82 CALM      29.92R
NEW IBERIA     CLEAR     78  68  71 NE7       29.95R
CHENAULT AIRPK CLEAR     75  66  73 CALM      29.94

$$

LAZ027-028-030400-
CENTRAL LOUISIANA

CITY           SKY/WX    TMP DP  RH WIND       PRES   REMARKS
FORT POLK      CLOUDY    75  65  71 NE5       29.95R
ALEXANDRIA INT CLEAR     73  65  75 E5        29.94R
ALEXANDRIA     CLEAR     67  65  93 CALM      29.96R

$$

LAZ001-002-030400-
NORTHWEST LOUISIANA

CITY           SKY/WX    TMP DP  RH WIND       PRES   REMARKS
SHREVEPORT     PTCLDY    72  65  78 CALM      29.96R
BARKSDALE AFB  CLEAR     72  65  79 E5        29.96R
DTN SHREVEPORT CLEAR     74  64  71 CALM      29.96R

$$

LAZ014-016-030400-
NORTHEAST LOUISIANA

CITY           SKY/WX    TMP DP  RH WIND       PRES   REMARKS
MONROE         CLEAR     70  67  90 CALM      29.98R
TALLULAH       CLEAR     71  63  75 NE3       29.97R

$$



USA.gov is the U.S. government's official web portal to all federal, state and local government web resources and services.